TimeEDT,TemperatureF,Dew PointF,Humidity,Sea Level PressureIn,VisibilityMPH,Wind Direction,Wind SpeedMPH,Gust SpeedMPH,PrecipitationIn,Events,Conditions,WindDirDegrees,DateUTC
12:56 AM,64.9,64.0,97,30.04,1.0,ESE,4.6,-,N/A,,Mist,110,2013-10-07 04:56:00
1:56 AM,66.0,64.9,96,30.02,1.2,ESE,6.9,-,N/A,,Mist,110,2013-10-07 05:56:00
2:56 AM,66.9,64.9,93,30.00,2.0,ESE,8.1,-,N/A,,Overcast,110,2013-10-07 06:56:00
3:56 AM,66.9,66.0,97,29.98,2.5,ESE,6.9,-,N/A,,Overcast,120,2013-10-07 07:56:00
4:56 AM,66.9,64.9,93,29.97,2.5,ESE,5.8,-,N/A,,Overcast,120,2013-10-07 08:56:00
5:31 AM,66.2,64.4,94,29.97,3.0,SE,6.9,-,N/A,,Overcast,130,2013-10-07 09:31:00
5:56 AM,66.9,64.9,93,29.96,1.0,SE,5.8,-,N/A,,Overcast,140,2013-10-07 09:56:00
6:56 AM,66.9,66.0,97,29.96,1.5,SSE,6.9,-,N/A,,Overcast,150,2013-10-07 10:56:00
7:56 AM,68.0,66.0,93,29.94,1.5,SE,9.2,-,N/A,,Mostly Cloudy,130,2013-10-07 11:56:00
8:56 AM,69.1,66.9,93,29.93,6.0,SSE,9.2,18.4,N/A,,Overcast,160,2013-10-07 12:56:00
9:56 AM,70.0,66.9,90,29.91,9.0,SE,10.4,-,N/A,,Mostly Cloudy,140,2013-10-07 13:56:00
10:38 AM,71.6,66.2,83,29.90,10.0,SSE,20.7,27.6,N/A,,Overcast,160,2013-10-07 14:38:00
10:56 AM,72.0,66.9,84,29.88,10.0,SE,15.0,23.0,N/A,,Mostly Cloudy,140,2013-10-07 14:56:00
11:56 AM,73.0,66.9,81,29.86,10.0,SSE,12.7,26.5,N/A,,Mostly Cloudy,160,2013-10-07 15:56:00
12:10 PM,71.6,66.2,83,29.87,0.8,South,13.8,28.8,0.00,Rain,Rain,170,2013-10-07 16:10:00
12:37 PM,71.6,68.0,88,29.85,5.0,South,13.8,21.9,N/A,Rain,Light Rain,170,2013-10-07 16:37:00
12:56 PM,71.1,68.0,90,29.83,5.0,South,19.6,31.1,N/A,Rain,Light Rain,170,2013-10-07 16:56:00
1:56 PM,73.0,66.9,81,29.79,6.0,South,20.7,31.1,N/A,,Overcast,180,2013-10-07 17:56:00
2:15 PM,73.4,66.2,78,29.80,6.0,South,20.7,32.2,N/A,,Overcast,170,2013-10-07 18:15:00
2:56 PM,73.0,66.9,81,29.78,6.0,South,18.4,31.1,N/A,Rain,Light Rain,170,2013-10-07 18:56:00
3:53 PM,71.6,66.2,83,29.82,1.0,WSW,17.3,32.2,N/A,Rain,Rain,250,2013-10-07 19:53:00
3:56 PM,69.1,64.0,84,29.81,1.0,West,13.8,32.2,N/A,Rain,Rain,260,2013-10-07 19:56:00
4:03 PM,66.2,62.6,88,29.82,2.5,Variable,6.9,25.3,N/A,Rain,Rain,0,2013-10-07 20:03:00
4:18 PM,66.2,62.6,88,29.81,2.5,Variable,4.6,-,N/A,Rain,Rain,0,2013-10-07 20:18:00
4:56 PM,64.9,62.1,90,29.83,3.0,SSW,8.1,-,N/A,Rain,Light Rain,210,2013-10-07 20:56:00
5:01 PM,64.4,62.6,94,29.84,3.0,Variable,5.8,-,N/A,Rain,Rain,0,2013-10-07 21:01:00
5:08 PM,64.4,62.6,94,29.84,2.5,South,6.9,-,N/A,Rain,Rain,190,2013-10-07 21:08:00
5:54 PM,64.4,62.6,94,29.85,6.0,South,4.6,-,N/A,Rain,Light Rain,180,2013-10-07 21:54:00
5:56 PM,64.9,63.0,93,29.84,6.0,South,5.8,-,N/A,Rain,Light Rain,180,2013-10-07 21:56:00
6:56 PM,62.1,57.9,86,29.87,8.0,WNW,8.1,-,0.01,Rain,Light Rain,290,2013-10-07 22:56:00
7:56 PM,61.0,55.0,81,29.89,10.0,West,6.9,-,0.00,,Overcast,280,2013-10-07 23:56:00
8:56 PM,60.1,55.0,83,29.91,10.0,WNW,6.9,-,N/A,,Overcast,290,2013-10-08 00:56:00
9:56 PM,60.1,53.1,78,29.92,10.0,WNW,8.1,-,N/A,,Mostly Cloudy,290,2013-10-08 01:56:00
10:56 PM,60.1,51.1,72,29.94,10.0,WNW,9.2,18.4,N/A,,Mostly Cloudy,290,2013-10-08 02:56:00
11:56 PM,59.0,48.9,69,29.96,10.0,NW,10.4,-,N/A,,Partly Cloudy,320,2013-10-08 03:56:00